Location: Fort Worth, Tx
(32.7431°N, 97.3695°W)
Time: 04:57:13
(UTC-04:00)

Vanguard 3 - Pass Details

Date: 28 February 2024
Orbit: 510 x 3234 km, 33.3° (Epoch: 24 April)

Event Time Altitude Azimuth Distance (km) Brightness Sun altitude
Rises 20:44:04 0° 241° (WSW) 6,147 12.7 -17.3°
Reaches altitude 10° 20:47:40 10° 239° (WSW) 5,409 12.2 -18.0°
Maximum altitude 21:05:27 75° 158° (SSE) 3,294 10.0 -21.7°
Enters shadow 21:18:06 30° 80° (E) 4,577 10.3 -24.4°
